Weather History for Port Aransas, TX

Change the Weather History Date:

Saturday, September 1, 2012

  Actual Average (KCRP) Record (KCRP)
Temperature  
Mean Temperature 82 °F 84 °F  
Max Temperature 87 °F 93 °F 103 °F (2000)
Min Temperature 78 °F 75 °F 67 °F (1950)
Degree Days  
Heating Degree Days 0 0  
Month to date heating degree days 0  
Since 1 July heating degree days 0  
Cooling Degree Days 18 19  
Month to date cooling degree days 19  
Year to date cooling degree days 2580  
Growing Degree Days 32 (Base 50)    
Moisture  
Dew Point 76 °F    
Average Humidity 79    
Maximum Humidity 84    
Minimum Humidity 62    
Precipitation  
Precipitation 0.11 in 0.16 in 1.53 in (1970)
Month to date precipitation 0.16  
Year to date precipitation 19.50  
Snow  
Snow 0.00 in - - ()
Month to date snowfall  
Since 1 July snowfall  
Since 1 September snowfall  
Snow Depth -    
Sea Level Pressure  
Sea Level Pressure 30.03 in    
Wind  
Wind Speed 12 mph (SSE)    
Max Wind Speed 17 mph    
Max Gust Speed 33 mph    
Visibility 10 miles    
Events Rain , Thunderstorm    
T = Trace of Precipitation, MM = Missing Value Source: NWS Daily Summary

Daily Weather History Graph

Daily Weather History Graph

Search for Another Location

Airport:

Trip Planner

Search our weather history database for the weather conditions in past years. The results will help you decide how hot, cold, wet, or windy it might be!

Date:

Astronomy

Sep. 01, 2012 Rise Set
Actual Time 7:07 AM CDT 7:48 PM CDT
Civil Twilight 6:43 AM CDT 8:12 PM CDT
Nautical Twilight 6:15 AM CDT 8:40 PM CDT
Astronomical Twilight 5:47 AM CDT 9:08 PM CDT
Moon 8:20 PM CDT (9/1) 8:04 AM CDT (9/1)
Length of Visible Light 13h 28m
Length of Day
12h 41m
Full, 99% of the Moon is Illuminated
Sep 1
Full
Sep 8
Last Quarter
Sep 15
New
Sep 22
First Quarter
Sep 29
Full

Hourly Weather History & Observations

Time (CDT) Temp. Heat Index Dew Point Humidity Pressure Visibility Wind Dir Wind Speed Gust Speed Precip Events Conditions
12:15 AM 82.4 °F 90.9 °F 77.0 °F 84% 30.00 in 10.0 mi SSE 13.8 mph 21.9 mph N/A   Scattered Clouds
12:35 AM 82.4 °F 89.5 °F 75.2 °F 79% 30.00 in 10.0 mi South 13.8 mph 20.7 mph N/A   Scattered Clouds
12:55 AM 82.4 °F 89.5 °F 75.2 °F 79% 30.00 in 10.0 mi South 13.8 mph 19.6 mph N/A   Clear
1:15 AM 82.4 °F 89.5 °F 75.2 °F 79% 30.00 in 10.0 mi South 16.1 mph 21.9 mph N/A   Scattered Clouds
1:35 AM 82.4 °F 90.9 °F 77.0 °F 84% 30.00 in 10.0 mi SSE 13.8 mph 18.4 mph N/A   Scattered Clouds
2:15 AM 82.4 °F 90.9 °F 77.0 °F 84% 30.00 in 10.0 mi South 12.7 mph - N/A   Mostly Cloudy
2:35 AM 82.4 °F 90.9 °F 77.0 °F 84% 30.00 in 10.0 mi South 13.8 mph 17.3 mph N/A   Overcast
2:55 AM 82.4 °F 90.9 °F 77.0 °F 84% 30.00 in 10.0 mi South 15.0 mph 19.6 mph N/A   Mostly Cloudy
3:15 AM 82.4 °F 90.9 °F 77.0 °F 84% 29.99 in 10.0 mi South 15.0 mph 19.6 mph N/A   Scattered Clouds
3:35 AM 82.4 °F 90.9 °F 77.0 °F 84% 29.99 in 10.0 mi South 13.8 mph 20.7 mph N/A   Scattered Clouds
4:15 AM 82.4 °F 90.9 °F 77.0 °F 84% 30.00 in 10.0 mi South 13.8 mph 20.7 mph N/A   Clear
4:35 AM 82.4 °F 90.9 °F 77.0 °F 84% 30.00 in 10.0 mi South 11.5 mph 21.9 mph N/A   Scattered Clouds
4:55 AM 82.4 °F 90.9 °F 77.0 °F 84% 30.00 in 10.0 mi South 15.0 mph 21.9 mph N/A   Scattered Clouds
5:15 AM 82.4 °F 90.9 °F 77.0 °F 84% 30.00 in 10.0 mi South 13.8 mph 19.6 mph N/A   Mostly Cloudy
5:35 AM 82.4 °F 90.9 °F 77.0 °F 84% 30.00 in 10.0 mi South 13.8 mph 20.7 mph N/A   Scattered Clouds
5:55 AM 82.4 °F 90.9 °F 77.0 °F 84% 30.00 in 10.0 mi South 13.8 mph 19.6 mph N/A   Scattered Clouds
6:15 AM 82.4 °F 90.9 °F 77.0 °F 84% 30.01 in 10.0 mi South 10.4 mph - N/A   Clear
6:35 AM 82.4 °F 90.9 °F 77.0 °F 84% 30.01 in 10.0 mi South 11.5 mph 16.1 mph N/A   Scattered Clouds
6:55 AM 82.4 °F 90.9 °F 77.0 °F 84% 30.02 in 10.0 mi South 8.1 mph 11.5 mph N/A   Scattered Clouds
7:15 AM 82.4 °F 90.9 °F 77.0 °F 84% 30.02 in 7.0 mi South 11.5 mph 16.1 mph N/A   Clear
7:35 AM 82.4 °F 90.9 °F 77.0 °F 84% 30.02 in 7.0 mi South 9.2 mph - N/A   Clear
7:55 AM 82.4 °F 90.9 °F 77.0 °F 84% 30.03 in 7.0 mi South 10.4 mph - N/A   Scattered Clouds
8:15 AM 82.4 °F 90.9 °F 77.0 °F 84% 30.03 in 7.0 mi SSE 9.2 mph - N/A   Scattered Clouds
8:35 AM 84.2 °F 94.1 °F 77.0 °F 79% 30.04 in 7.0 mi South 6.9 mph - N/A   Clear
8:55 AM 82.4 °F 90.9 °F 77.0 °F 84% 30.04 in 7.0 mi SE 12.7 mph 18.4 mph N/A   Scattered Clouds
9:15 AM 82.4 °F 90.9 °F 77.0 °F 84% 30.05 in 7.0 mi SSE 9.2 mph - N/A   Mostly Cloudy
9:35 AM 87.8 °F 95.6 °F 73.4 °F 62% 30.06 in 10.0 mi South 13.8 mph 18.4 mph N/A   Scattered Clouds
9:55 AM 86.0 °F 93.4 °F 73.4 °F 66% 30.08 in 10.0 mi South 10.4 mph - N/A   Clear
10:15 AM 86.0 °F 93.4 °F 73.4 °F 66% 30.08 in 10.0 mi South 10.4 mph - N/A   Scattered Clouds
10:35 AM 87.8 °F 95.6 °F 73.4 °F 62% 30.09 in 10.0 mi South 12.7 mph - N/A   Mostly Cloudy
10:55 AM 86.0 °F 95.1 °F 75.2 °F 70% 30.08 in 10.0 mi South 8.1 mph 16.1 mph N/A   Scattered Clouds
11:15 AM 87.8 °F 99.7 °F 77.0 °F 70% 30.08 in 10.0 mi South 12.7 mph - N/A Thunderstorm Clear
11:35 AM 87.8 °F 99.7 °F 77.0 °F 70% 30.08 in 10.0 mi SSE 10.4 mph - N/A   Clear
11:55 AM 87.8 °F 99.7 °F 77.0 °F 70% 30.08 in 10.0 mi SE 11.5 mph 16.1 mph N/A   Clear
12:15 PM 82.4 °F 89.5 °F 75.2 °F 79% 30.10 in 3.0 mi South 15.0 mph 33.4 mph 0.04 in Rain Heavy Rain
12:35 PM 78.8 °F - 73.4 °F 83% 30.09 in 5.0 mi South 6.9 mph - 0.11 in Rain Rain
1:15 PM 80.6 °F 86.2 °F 75.2 °F 84% 30.08 in 7.0 mi SSE 6.9 mph - N/A   Clear
1:35 PM 84.2 °F 90.9 °F 73.4 °F 70% 30.07 in 10.0 mi South 11.5 mph - N/A   Clear
1:55 PM 84.2 °F 90.9 °F 73.4 °F 70% 30.07 in 10.0 mi SSE 8.1 mph - N/A   Clear
2:15 PM 84.2 °F 92.3 °F 75.2 °F 74% 30.07 in 10.0 mi SSE 13.8 mph 17.3 mph N/A   Clear
2:35 PM 84.2 °F 92.3 °F 75.2 °F 74% 30.06 in 10.0 mi SSE 12.7 mph 16.1 mph N/A   Clear
2:55 PM 86.0 °F 96.9 °F 77.0 °F 74% 30.06 in 10.0 mi SSE 12.7 mph 18.4 mph N/A   Clear
3:15 PM 86.0 °F 96.9 °F 77.0 °F 74% 30.06 in 10.0 mi SSE 13.8 mph 20.7 mph N/A   Clear
3:35 PM 86.0 °F 96.9 °F 77.0 °F 74% 30.05 in 10.0 mi South 13.8 mph 21.9 mph N/A   Clear
3:55 PM 86.0 °F 96.9 °F 77.0 °F 74% 30.05 in 10.0 mi South 16.1 mph 20.7 mph N/A   Scattered Clouds
4:15 PM 82.4 °F 89.5 °F 75.2 °F 79% 30.05 in 10.0 mi South 17.3 mph 28.8 mph N/A   Mostly Cloudy
4:35 PM 82.4 °F 88.2 °F 73.4 °F 74% 30.03 in 10.0 mi South 15.0 mph 25.3 mph N/A   Scattered Clouds
4:55 PM 82.4 °F 88.2 °F 73.4 °F 74% 30.02 in 10.0 mi South 15.0 mph 19.6 mph N/A   Clear
5:15 PM 82.4 °F 88.2 °F 73.4 °F 74% 30.00 in 10.0 mi SSE 9.2 mph - N/A   Clear
5:35 PM 82.4 °F 89.5 °F 75.2 °F 79% 29.99 in 10.0 mi SE 6.9 mph - N/A   Clear
5:55 PM 82.4 °F 88.2 °F 73.4 °F 74% 29.99 in 10.0 mi SSE 10.4 mph - N/A   Clear
6:15 PM 84.2 °F 89.6 °F 71.6 °F 66% 29.99 in 10.0 mi SE 9.2 mph - N/A   Clear
6:35 PM 82.4 °F 88.2 °F 73.4 °F 74% 30.00 in 10.0 mi SSE 9.2 mph - N/A   Clear
6:55 PM 82.4 °F 89.5 °F 75.2 °F 79% 30.01 in 10.0 mi SSE 8.1 mph - N/A   Clear
7:15 PM 82.4 °F 89.5 °F 75.2 °F 79% 30.00 in 10.0 mi SSE 10.4 mph - N/A   Clear
7:35 PM 82.4 °F 89.5 °F 75.2 °F 79% 30.01 in 10.0 mi SSE 9.2 mph - N/A   Clear
7:55 PM 82.4 °F 90.9 °F 77.0 °F 84% 30.01 in 10.0 mi SSE 13.8 mph - N/A   Clear
8:15 PM 82.4 °F 89.5 °F 75.2 °F 79% 30.01 in 10.0 mi SSE 11.5 mph 18.4 mph N/A   Clear
8:35 PM 82.4 °F 90.9 °F 77.0 °F 84% 30.02 in 10.0 mi SSE 9.2 mph - N/A   Scattered Clouds
8:55 PM 82.4 °F 90.9 °F 77.0 °F 84% 30.02 in 10.0 mi SSE 11.5 mph 18.4 mph N/A   Clear
9:15 PM 82.4 °F 90.9 °F 77.0 °F 84% 30.03 in 10.0 mi SSE 10.4 mph 16.1 mph N/A   Scattered Clouds
9:35 PM 82.4 °F 90.9 °F 77.0 °F 84% 30.03 in 10.0 mi SSE 11.5 mph 16.1 mph N/A   Scattered Clouds
9:55 PM 82.4 °F 90.9 °F 77.0 °F 84% 30.03 in 10.0 mi SSE 9.2 mph 16.1 mph N/A   Clear
10:15 PM 82.4 °F 90.9 °F 77.0 °F 84% 30.03 in 10.0 mi South 10.4 mph 16.1 mph N/A   Scattered Clouds
10:35 PM 82.4 °F 90.9 °F 77.0 °F 84% 30.03 in 10.0 mi SSE 12.7 mph - N/A   Scattered Clouds
10:55 PM 82.4 °F 90.9 °F 77.0 °F 84% 30.03 in 10.0 mi SSE 12.7 mph - N/A   Scattered Clouds
11:15 PM 82.4 °F 90.9 °F 77.0 °F 84% 30.03 in 10.0 mi SSE 12.7 mph - N/A   Clear
11:35 PM 82.4 °F 90.9 °F 77.0 °F 84% 30.03 in 10.0 mi SSE 11.5 mph 16.1 mph N/A   Scattered Clouds
11:55 PM 82.4 °F 90.9 °F 77.0 °F 84% 30.03 in 10.0 mi South 13.8 mph - N/A   Mostly Cloudy